Wind_Speed
10 10 10 10 11 11 12 13 13 13 13 12 11 11 11 12 10 10 9 7 6 6 5 2 1 1 1 2 3 5 6 7 9 10 10 10 9 9 9 10 11 10
12 12 13 15 16 16 15 13 11 9 9 10 10 10 10 12 11 10 8 6 6 6 4 2 2 1 1 3 5 7 8 9 9 9 9 10 11 10 11 12 12 13
13 14 16 19 19 16 13 10 8 8 10 13 13 12 12 13 12 11 9 6 6 5 4 4 4 3 4 6 8 9 8 8 8 9 8 9 9 8 10 11 10 9
15 17 19 20 18 14 11 8 9 10 10 13 15 14 15 14 13 11 9 7 6 4 3 4 5 5 7 9 10 9 8 7 8 8 8 8 7 6 6 8 7 6
19 20 21 19 16 12 9 8 10 11 12 14 15 15 15 14 11 9 7 6 6 5 5 6 6 7 9 9 9 9 9 9 9 8 7 7 7 6 7 7 8 8
21 22 20 17 13 9 8 9 11 12 14 15 16 14 12 9 7 7 7 7 7 6 6 7 8 9 8 7 7 9 9 9 10 8 8 8 9 8 8 9 9 10
21 19 16 13 10 9 11 11 10 9 9 10 10 8 7 7 6 6 7 6 5 6 7 8 9 8 8 8 9 8 6 6 8 9 9 9 10 11 10 10 10 11
17 14 11 10 11 13 13 12 9 7 6 5 5 3 4 5 5 4 4 4 5 6 7 8 9 9 8 8 7 6 7 9 12 14 13 9 10 12 12 11 11 12
13 10 9 11 14 15 13 11 9 7 6 6 5 4 3 3 2 2 3 5 7 7 8 7 8 8 7 6 5 7 10 12 15 17 15 12 9 11 14 14 13 12
11 9 9 11 14 13 11 9 7 5 5 4 3 2 2 3 3 4 5 6 6 7 7 6 7 7 5 4 6 8 10 13 16 18 17 15 13 10 11 13 12 10
12 10 9 11 12 11 8 6 4 3 2 1 1 2 3 4 5 5 5 5 6 6 5 5 6 5 4 4 5 7 11 15 17 18 19 18 15 11 8 10 10 8
12 11 9 9 11 10 8 5 2 2 1 1 3 4 4 4 5 6 6 6 6 5 4 5 4 3 4 4 5 9 13 15 17 19 20 18 14 11 7 7 8 8
13 11 9 8 9 8 6 4 1 1 2 3 4 5 5 5 4 5 6 5 4 3 3 3 3 2 3 4 7 11 14 16 19 20 19 15 11 9 5 4 6 6
12 10 9 8 7 6 4 3 2 3 3 4 5 5 5 4 4 5 3 1 1 0 1 2 3 3 2 5 9 13 15 17 20 20 17 12 7 4 2 4 5 6
12 10 9 9 6 4 3 3 3 3 3 4 5 5 4 4 3 2 2 5 4 2 3 4 4 4 4 7 11 13 16 19 20 18 15 11 7 5 5 6 7 8
12 10 9 9 7 5 4 4 3 3 4 5 5 4 4 4 2 4 5 4 3 1 2 3 4 5 6 9 12 14 18 20 19 16 13 11 10 9 8 9 9 9
12 9 8 7 7 6 4 4 4 4 5 6 5 4 3 1 4 6 4 3 2 1 1 3 5 6 7 10 12 15 19 20 18 15 13 12 11 11 11 12 12 13
11 10 7 6 6 5 5 5 5 6 7 6 5 3 2 4 5 5 4 2 2 2 1 3 5 7 9 11 14 17 19 19 17 15 13 12 11 11 12 12 13 14
11 10 7 6 6 6 6 6 7 8 7 6 4 1 5 5 4 3 3 2 2 2 2 5 7 9 11 13 16 17 18 18 17 14 13 12 12 12 12 12 12 12
11 9 6 5 6 6 7 7 8 7 6 4 1 5 7 4 3 2 1 2 2 3 5 8 9 11 14 15 16 16 17 18 18 15 14 15 15 16 16 14 13 13
10 8 6 6 6 6 7 7 8 7 4 1 4 6 6 4 1 1 2 2 4 6 8 9 12 14 14 14 14 16 18 20 20 17 17 18 19 20 20 18 16 15
10 8 7 7 7 7 7 7 8 5 1 3 4 5 4 3 1 2 2 3 6 8 10 12 13 14 12 12 14 16 18 21 22 21 20 21 23 24 23 21 18 15
9 8 8 8 7 7 7 7 5 2 4 5 5 4 3 2 2 3 4 6 9 11 11 12 12 11 11 12 14 17 20 22 23 23 23 24 26 25 23 20 17 15
9 9 8 8 7 7 6 5 2 3 5 5 4 3 2 3 4 6 8 10 10 10 9 9 10 10 10 12 16 19 22 24 24 24 24 26 26 25 22 19 16 14
9 9 8 8 8 6 4 3 3 4 4 4 3 3 3 5 7 9 9 8 8 8 8 8 9 9 11 14 18 20 22 23 23 24 25 26 25 22 18 15 14 12
9 9 8 8 6 5 5 4 4 3 3 3 4 5 7 7 7 5 5 6 7 6 6 7 8 10 13 17 19 20 21 22 23 25 26 24 20 18 16 14 13 12
Wind_Direction
131 134 139 142 142 138 133 134 136 133 134 141 141 141 138 134 140 148 141 119 82 77 81 65 30 19 357 319 314 314 308 299 296 288 275 272 274 273 280 285 284 282
128 129 132 136 134 126 121 122 125 134 148 153 148 147 145 141 143 148 138 110 94 108 126 186 250 287 273 277 296 302 304 302 290 277 269 270 275 279 282 283 280 276
127 127 129 131 127 115 105 104 116 137 155 162 159 153 151 146 142 146 146 137 134 141 162 208 230 243 262 280 294 299 300 296 280 276 284 285 285 288 285 283 283 278
125 127 128 126 119 105 90 95 123 135 146 160 159 149 149 150 146 147 150 153 160 178 204 222 237 257 280 288 290 292 292 284 277 280 289 293 299 303 289 281 278 273
123 125 126 125 119 104 84 93 122 130 134 149 151 145 149 156 155 157 162 168 185 209 222 234 254 275 287 288 289 300 304 295 285 279 280 286 292 293 283 273 270 272
125 126 126 125 118 105 107 120 131 134 134 143 149 151 161 171 179 194 203 207 219 241 254 264 277 288 292 297 314 323 319 308 297 291 288 283 280 277 273 271 273 275
128 126 124 124 121 124 138 144 145 147 148 151 155 162 177 185 190 200 211 227 251 273 286 293 297 301 306 319 329 333 335 334 331 329 318 293 274 268 268 271 276 279
131 129 127 132 138 140 144 149 156 169 185 191 190 201 200 189 185 186 207 257 288 292 296 301 302 306 316 324 330 345 0 358 352 351 345 323 286 268 267 270 273 278
136 134 134 141 146 148 153 165 178 194 208 216 222 225 211 203 220 240 259 282 292 295 299 303 303 309 320 331 347 1 360 355 352 352 351 345 320 281 268 270 274 279
136 131 138 149 154 159 169 183 198 207 206 215 221 209 217 251 278 281 282 289 295 300 307 309 309 315 331 353 359 357 352 351 352 352 351 348 342 315 277 269 276 281
138 133 140 155 165 174 185 193 199 198 186 198 258 287 290 291 294 295 300 307 308 309 315 317 315 325 353 3 350 345 348 349 349 349 348 345 343 335 297 266 267 275
151 152 154 165 177 184 193 197 187 187 204 292 304 307 305 302 302 300 304 314 318 322 325 319 317 338 357 348 336 340 344 346 345 344 343 342 339 336 314 264 259 274
167 169 174 182 191 197 209 222 232 273 287 301 307 304 301 304 302 297 306 321 325 321 313 312 325 346 334 320 331 340 342 342 342 339 339 342 341 336 320 264 260 280
177 174 184 196 203 210 226 241 261 284 290 296 302 303 302 305 298 293 313 29 104 139 322 341 357 354 311 312 330 338 339 339 338 337 338 342 342 331 272 236 250 269
188 184 198 209 211 218 230 239 259 283 297 304 306 304 297 297 289 254 139 126 130 92 15 4 5 354 317 320 330 334 334 335 334 335 338 337 325 299 259 251 263 274
201 202 212 218 222 228 232 247 273 287 301 310 311 304 292 284 227 162 137 123 131 95 9 358 357 345 327 326 329 329 329 330 331 335 339 333 317 301 285 278 279 278
208 214 222 225 229 234 243 265 285 295 307 316 314 304 290 225 157 148 136 127 158 196 316 344 339 329 321 321 325 327 328 330 333 339 341 334 322 312 303 296 290 284
215 223 227 228 234 247 265 283 304 314 317 322 319 301 161 137 133 138 154 180 215 234 291 326 320 315 316 321 326 328 329 332 339 344 345 342 334 323 311 302 297 293
223 227 228 232 248 269 287 305 321 320 318 326 327 159 139 127 130 157 184 242 261 250 286 308 312 319 325 327 328 328 331 339 347 350 353 356 354 345 332 317 308 305
229 235 243 253 266 285 302 316 321 316 315 331 86 145 146 140 142 172 250 313 289 289 307 314 320 327 328 326 327 330 337 347 354 355 355 357 358 357 350 338 325 318
235 244 258 268 279 294 305 313 315 310 308 329 137 152 173 188 186 327 329 322 312 316 321 322 324 325 324 327 333 338 343 349 354 354 351 351 354 354 352 347 338 327
237 246 258 266 279 293 299 304 305 301 258 141 149 164 190 216 283 319 309 315 319 321 321 320 320 324 332 340 341 339 341 345 348 348 347 349 350 349 349 348 344 337
243 249 257 267 280 290 294 296 297 264 153 150 163 175 193 252 284 285 297 309 311 313 316 319 327 340 349 345 337 335 338 340 342 343 343 344 345 345 345 345 342 338
248 251 261 273 279 280 282 284 263 175 166 174 189 210 244 266 281 290 297 301 307 318 331 343 356 0 349 334 333 335 336 335 336 337 338 338 340 342 343 343 344 344
249 251 261 272 273 269 260 235 189 180 193 212 227 256 279 284 290 294 301 319 341 2 10 5 1 354 338 331 333 333 330 330 331 332 333 335 338 342 347 355 2 3
250 252 261 265 262 245 222 213 215 223 244 267 277 289 295 299 306 321 351 10 15 13 360 344 340 337 331 329 329 327 327 329 328 328 331 337 344 353 3 10 12 9
Height
1533 1534 1536 1537 1538 1540 1540 1541 1542 1543 1544 1545 1545 1546 1546 1546 1546 1547 1547 1546 1546 1546 1546 1546 1546 1546 1545 1545 1544 1544 1543 1542 1541 1541 1540 1539 1539 1538 1537 1537 1536 1536
1534 1535 1537 1538 1539 1540 1541 1542 1543 1543 1544 1545 1546 1546 1546 1547 1547 1547 1547 1547 1546 1546 1546 1546 1546 1546 1545 1545 1544 1543 1542 1542 1541 1540 1539 1538 1538 1537 1536 1536 1535 1535
1535 1536 1537 1539 1540 1542 1542 1543 1543 1543 1544 1544 1545 1546 1546 1547 1547 1546 1546 1546 1546 1546 1546 1546 1545 1545 1545 1544 1543 1543 1542 1541 1540 1539 1538 1538 1537 1536 1535 1535 1534 1534
1536 1537 1538 1540 1541 1542 1543 1543 1543 1544 1544 1545 1545 1546 1546 1546 1546 1546 1546 1546 1546 1546 1546 1545 1545 1545 1544 1544 1543 1542 1541 1540 1539 1538 1537 1536 1536 1535 1534 1533 1533 1532
1538 1539 1540 1541 1542 1543 1543 1543 1544 1544 1544 1545 1546 1546 1546 1546 1547 1546 1546 1546 1546 1546 1546 1545 1545 1545 1544 1543 1542 1542 1540 1539 1539 1538 1537 1536 1535 1534 1533 1533 1532 1531
1540 1541 1541 1542 1543 1543 1544 1545 1545 1545 1545 1546 1547 1547 1547 1547 1547 1547 1547 1547 1546 1546 1546 1545 1545 1544 1544 1543 1542 1541 1540 1539 1538 1538 1537 1536 1535 1534 1533 1532 1531 1531
1542 1542 1542 1543 1544 1544 1545 1546 1546 1546 1547 1547 1548 1548 1548 1548 1547 1547 1547 1547 1546 1546 1545 1545 1545 1544 1543 1543 1542 1541 1540 1539 1538 1537 1536 1535 1534 1533 1532 1531 1531 1530
1544 1544 1544 1544 1544 1545 1546 1547 1547 1547 1547 1548 1548 1548 1548 1548 1548 1547 1547 1546 1546 1545 1545 1544 1544 1544 1543 1542 1541 1541 1540 1539 1538 1537 1536 1534 1533 1533 1531 1531 1530 1529
1545 1545 1545 1545 1545 1546 1547 1547 1548 1548 1548 1548 1548 1548 1548 1548 1548 1547 1547 1546 1545 1545 1544 1544 1544 1543 1543 1542 1541 1541 1540 1539 1538 1536 1535 1534 1532 1532 1531 1530 1529 1528
1546 1546 1546 1546 1547 1547 1548 1548 1549 1549 1549 1549 1548 1548 1548 1548 1548 1547 1547 1546 1545 1545 1544 1544 1543 1543 1543 1542 1541 1541 1540 1539 1537 1536 1535 1533 1532 1531 1530 1529 1528 1527
1547 1548 1548 1548 1548 1548 1549 1549 1549 1549 1549 1549 1549 1549 1548 1548 1547 1547 1546 1546 1545 1544 1544 1544 1543 1543 1543 1542 1541 1540 1540 1538 1537 1535 1534 1532 1531 1529 1528 1528 1527 1526
1549 1549 1549 1549 1549 1549 1550 1550 1550 1549 1550 1549 1549 1548 1548 1547 1547 1546 1546 1545 1545 1544 1544 1543 1543 1543 1542 1542 1541 1540 1539 1538 1536 1535 1533 1531 1530 1528 1527 1527 1526 1526
1549 1550 1550 1550 1550 1550 1550 1550 1550 1550 1550 1549 1549 1548 1548 1547 1546 1546 1545 1545 1544 1544 1543 1543 1543 1543 1542 1542 1541 1540 1539 1537 1536 1534 1533 1531 1529 1528 1527 1526 1526 1525
1550 1551 1550 1550 1551 1550 1551 1550 1550 1550 1549 1549 1548 1548 1547 1547 1546 1545 1545 1544 1544 1544 1543 1543 1543 1542 1542 1541 1540 1539 1538 1537 1535 1533 1531 1530 1528 1527 1526 1526 1525 1524
1551 1551 1551 1551 1551 1551 1551 1550 1550 1549 1549 1548 1548 1547 1547 1546 1545 1544 1544 1544 1544 1544 1543 1543 1542 1542 1541 1541 1540 1538 1537 1536 1534 1532 1530 1529 1527 1526 1525 1525 1524 1523
1551 1552 1551 1551 1551 1551 1550 1550 1549 1549 1548 1548 1547 1546 1546 1545 1544 1544 1544 1544 1544 1543 1543 1542 1542 1541 1541 1540 1539 1537 1536 1534 1533 1531 1529 1528 1526 1525 1524 1523 1522 1522
1552 1552 1552 1551 1551 1551 1550 1549 1549 1548 1548 1547 1546 1545 1545 1544 1544 1544 1544 1544 1543 1542 1543 1542 1541 1541 1540 1539 1538 1536 1535 1533 1531 1530 1528 1527 1525 1524 1523 1522 1521 1520
1552 1552 1552 1551 1551 1550 1550 1549 1549 1548 1547 1546 1545 1544 1544 1544 1544 1544 1543 1543 1543 1542 1542 1542 1541 1541 1539 1538 1537 1535 1533 1532 1530 1529 1527 1526 1524 1523 1521 1520 1518 1517
1551 1551 1551 1552 1551 1550 1549 1549 1548 1547 1546 1545 1544 1544 1544 1544 1544 1543 1543 1543 1542 1542 1542 1541 1541 1540 1538 1537 1535 1534 1532 1530 1529 1527 1526 1525 1523 1521 1520 1518 1516 1515
1551 1551 1551 1551 1550 1550 1549 1548 1548 1547 1546 1545 1544 1544 1544 1544 1543 1543 1542 1542 1542 1542 1542 1541 1540 1538 1537 1535 1534 1532 1531 1529 1528 1526 1525 1524 1522 1520 1518 1516 1515 1513
1550 1550 1550 1550 1550 1549 1549 1548 1547 1546 1546 1545 1545 1544 1544 1543 1542 1542 1542 1542 1542 1541 1541 1540 1538 1537 1536 1534 1532 1531 1530 1528 1527 1525 1524 1522 1520 1519 1517 1515 1513 1511
1549 1550 1550 1549 1549 1549 1548 1547 1547 1546 1545 1545 1545 1544 1543 1542 1542 1542 1542 1541 1541 1540 1539 1538 1537 1536 1534 1533 1531 1530 1529 1527 1526 1524 1522 1520 1518 1517 1514 1512 1510 1509
1549 1549 1549 1549 1549 1548 1547 1547 1546 1545 1545 1545 1544 1544 1543 1542 1542 1542 1541 1541 1540 1539 1538 1537 1536 1535 1533 1532 1531 1529 1528 1526 1524 1522 1520 1519 1517 1515 1512 1510 1508 1506
1549 1549 1549 1548 1548 1548 1547 1546 1546 1545 1545 1544 1544 1543 1543 1543 1542 1542 1541 1540 1539 1538 1537 1536 1535 1534 1532 1531 1530 1528 1526 1524 1522 1521 1519 1517 1515 1513 1511 1508 1506 1504
1549 1549 1548 1548 1548 1547 1547 1546 1545 1545 1544 1544 1544 1543 1543 1543 1542 1541 1540 1540 1539 1537 1536 1535 1534 1533 1532 1530 1528 1527 1525 1523 1521 1519 1517 1515 1513 1511 1509 1507 1505 1504
1548 1548 1548 1548 1547 1547 1546 1546 1545 1545 1544 1544 1544 1543 1543 1542 1541 1541 1540 1539 1538 1537 1536 1535 1534 1532 1531 1529 1527 1526 1524 1521 1519 1517 1515 1513 1511 1509 1508 1506 1505 1503